CCA310 ZSPD-RKPC

Flight info

Callsign CCA310
Flight time N/A
Altitude 37000
Route LAM81D LAMEN/N0457F370 A593 SADLI Y590 ELGEP Y722 SOSDO SOSDO2P
Aircraft B738/M-SDE2E3FGHIRWXY/LB1

Departure

Time 2026-05-05 08:21
Airport Shanghai Pudong International Airport (ZSPD)

Arrival

Time N/A
Airport Jeju International Airport (RKPC)
Time Latitude Longitude Altitude Speed Heading
2026-05-05 07:59 31.14039 121.80266 22 ft 0 kts 252°
2026-05-05 08:07 31.14044 121.80282 22 ft 2 kts 252°
2026-05-05 08:07 31.14049 121.80300 23 ft 2 kts 251°
2026-05-05 08:08 31.14054 121.80319 24 ft 2 kts 251°
2026-05-05 08:08 31.14055 121.80337 25 ft 2 kts 314°
2026-05-05 08:08 31.14041 121.80348 26 ft 2 kts 336°
2026-05-05 08:08 31.14027 121.80355 22 ft 1 kts 341°
2026-05-05 08:09 31.14023 121.80356 25 ft 0 kts 341°
2026-05-05 08:12 31.14034 121.80352 25 ft 5 kts 341°
2026-05-05 08:12 31.14091 121.80330 22 ft 10 kts 341°
2026-05-05 08:12 31.14158 121.80304 22 ft 10 kts 341°
2026-05-05 08:12 31.14187 121.80241 22 ft 10 kts 255°
2026-05-05 08:13 31.14166 121.80166 22 ft 10 kts 252°
2026-05-05 08:13 31.14146 121.80094 23 ft 9 kts 252°
2026-05-05 08:13 31.14126 121.80023 22 ft 9 kts 252°
2026-05-05 08:13 31.14107 121.79953 24 ft 9 kts 252°
2026-05-05 08:14 31.14081 121.79860 22 ft 15 kts 252°
2026-05-05 08:14 31.14049 121.79733 23 ft 16 kts 258°
2026-05-05 08:14 31.14037 121.79626 22 ft 13 kts 291°
2026-05-05 08:14 31.14111 121.79577 22 ft 12 kts 341°
2026-05-05 08:15 31.14194 121.79547 22 ft 12 kts 342°
2026-05-05 08:15 31.14273 121.79517 22 ft 12 kts 342°
2026-05-05 08:15 31.14352 121.79487 23 ft 13 kts 342°
2026-05-05 08:15 31.14451 121.79450 23 ft 17 kts 342°
2026-05-05 08:16 31.14571 121.79406 22 ft 20 kts 342°
2026-05-05 08:16 31.14713 121.79353 22 ft 23 kts 342°
2026-05-05 08:16 31.14863 121.79295 22 ft 22 kts 342°
2026-05-05 08:16 31.15008 121.79240 22 ft 22 kts 342°
2026-05-05 08:17 31.15150 121.79186 22 ft 21 kts 342°
2026-05-05 08:17 31.15287 121.79134 22 ft 20 kts 342°
2026-05-05 08:17 31.15420 121.79085 21 ft 20 kts 342°
2026-05-05 08:17 31.15550 121.79037 21 ft 19 kts 342°
2026-05-05 08:18 31.15674 121.78989 21 ft 19 kts 342°
2026-05-05 08:18 31.15795 121.78943 21 ft 18 kts 341°
2026-05-05 08:18 31.15911 121.78898 22 ft 17 kts 342°
2026-05-05 08:18 31.15959 121.78817 22 ft 11 kts 254°
2026-05-05 08:19 31.15952 121.78793 24 ft 0 kts 251°
2026-05-05 08:19 31.15946 121.78774 22 ft 8 kts 251°
2026-05-05 08:19 31.15921 121.78696 21 ft 3 kts 234°
2026-05-05 08:20 31.15889 121.78686 21 ft 8 kts 170°
2026-05-05 08:20 31.15872 121.78693 21 ft 0 kts 161°
2026-05-05 08:20 31.15744 121.78744 22 ft 54 kts 161°
2026-05-05 08:21 31.15133 121.78976 23 ft 124 kts 162°
2026-05-05 08:21 31.14148 121.79347 283 ft 157 kts 161°
2026-05-05 08:21 31.13086 121.79754 1045 ft 161 kts 165°
2026-05-05 08:21 31.12041 121.80111 1915 ft 163 kts 166°
2026-05-05 08:22 31.10881 121.80500 2385 ft 190 kts 166°
2026-05-05 08:22 31.09496 121.80968 2630 ft 220 kts 165°
2026-05-05 08:22 31.07981 121.81481 3174 ft 233 kts 166°
2026-05-05 08:22 31.06329 121.82037 3716 ft 251 kts 165°
2026-05-05 08:23 31.04643 121.82611 4460 ft 259 kts 164°
2026-05-05 08:23 31.02886 121.83203 5275 ft 264 kts 164°
2026-05-05 08:23 31.01096 121.83806 6117 ft 270 kts 164°
2026-05-05 08:23 30.99275 121.84431 6856 ft 276 kts 161°
2026-05-05 08:24 30.97469 121.85236 7628 ft 280 kts 158°
2026-05-05 08:24 30.95657 121.86112 8427 ft 284 kts 158°
2026-05-05 08:24 30.93818 121.86999 9211 ft 289 kts 159°
2026-05-05 08:24 30.91954 121.87832 9980 ft 293 kts 163°
2026-05-05 08:25 30.89971 121.88559 10669 ft 297 kts 165°
2026-05-05 08:25 30.87978 121.89266 11358 ft 302 kts 165°
2026-05-05 08:25 30.85957 121.89994 12072 ft 306 kts 165°
2026-05-05 08:25 30.83948 121.90789 12735 ft 312 kts 156°
2026-05-05 08:26 30.82316 121.92203 13399 ft 319 kts 131°
2026-05-05 08:26 30.81220 121.94464 13960 ft 329 kts 105°
2026-05-05 08:26 30.81086 121.97179 14100 ft 349 kts 77°
2026-05-05 08:26 30.81790 121.99959 14288 ft 368 kts 70°
2026-05-05 08:27 30.82644 122.02857 14420 ft 387 kts 70°
2026-05-05 08:27 30.83238 122.04844 14508 ft 399 kts 70°
2026-05-05 08:27 30.84451 122.08987 14936 ft 413 kts 70°
2026-05-05 08:27 30.85356 122.12170 15524 ft 415 kts 71°
2026-05-05 08:28 30.86251 122.15369 16086 ft 418 kts 71°
2026-05-05 08:28 30.87149 122.18608 16603 ft 422 kts 71°
2026-05-05 08:28 30.87749 122.20777 16927 ft 425 kts 71°
2026-05-05 08:28 30.88673 122.24117 17439 ft 429 kts 71°
2026-05-05 08:29 30.89609 122.27432 17940 ft 433 kts 68°
2026-05-05 08:29 30.91053 122.30459 18387 ft 434 kts 49°
2026-05-05 08:29 30.93055 122.33095 18857 ft 436 kts 46°
2026-05-05 08:30 30.97100 122.38455 19688 ft 444 kts 48°
2026-05-05 08:30 30.98918 122.41377 20078 ft 450 kts 62°
2026-05-05 08:30 30.99966 122.44832 20513 ft 454 kts 80°
2026-05-05 08:30 31.00171 122.48509 20973 ft 456 kts 91°
2026-05-05 08:31 31.00149 122.52208 21377 ft 459 kts 91°
2026-05-05 08:31 31.00102 122.55942 21749 ft 463 kts 92°
2026-05-05 08:31 31.00060 122.59712 22128 ft 467 kts 92°
2026-05-05 08:31 31.00035 122.63510 22522 ft 470 kts 91°
2026-05-05 08:32 31.00024 122.67332 22900 ft 473 kts 91°
2026-05-05 08:32 31.00022 122.71175 23272 ft 476 kts 91°
2026-05-05 08:32 31.00024 122.75046 23631 ft 479 kts 91°
2026-05-05 08:32 31.00025 122.78882 23917 ft 482 kts 91°
2026-05-05 08:33 31.00024 122.82817 24198 ft 486 kts 91°
2026-05-05 08:33 31.00021 122.86774 24461 ft 489 kts 92°
2026-05-05 08:33 31.00017 122.90743 24718 ft 493 kts 92°
2026-05-05 08:33 31.00010 122.94752 24976 ft 496 kts 92°
2026-05-05 08:34 31.00309 122.98777 25198 ft 503 kts 78°
2026-05-05 08:34 31.01512 123.02611 25443 ft 507 kts 60°
2026-05-05 08:34 31.03457 123.06038 25739 ft 507 kts 53°
2026-05-05 08:34 31.05555 123.09367 25970 ft 511 kts 52°
2026-05-05 08:35 31.07687 123.12706 26170 ft 514 kts 52°
2026-05-05 08:35 31.09819 123.16069 26420 ft 517 kts 52°
2026-05-05 08:35 31.11947 123.19474 26666 ft 520 kts 53°
2026-05-05 08:35 31.14064 123.22905 26896 ft 522 kts 53°
2026-05-05 08:36 31.16185 123.26371 27117 ft 525 kts 53°
2026-05-05 08:36 31.18308 123.29856 27357 ft 527 kts 53°
2026-05-05 08:36 31.20433 123.33349 27580 ft 530 kts 53°
2026-05-05 08:36 31.22573 123.36866 27833 ft 531 kts 53°
2026-05-05 08:37 31.24713 123.40383 28145 ft 531 kts 53°
2026-05-05 08:37 31.26832 123.43867 28460 ft 531 kts 53°
2026-05-05 08:37 31.28976 123.47393 28719 ft 533 kts 53°
2026-05-05 08:37 31.31128 123.50934 28967 ft 535 kts 53°
2026-05-05 08:38 31.33284 123.54486 29241 ft 536 kts 53°
2026-05-05 08:38 31.35450 123.58043 29550 ft 536 kts 53°
2026-05-05 08:38 31.37620 123.61591 29866 ft 537 kts 53°
2026-05-05 08:38 31.39806 123.65159 30166 ft 537 kts 53°
2026-05-05 08:39 31.41985 123.68718 30422 ft 538 kts 53°
2026-05-05 08:39 31.44163 123.72283 30695 ft 538 kts 53°
2026-05-05 08:39 31.46334 123.75843 30982 ft 538 kts 53°
2026-05-05 08:39 31.48479 123.79366 31204 ft 539 kts 53°
2026-05-05 08:40 31.50684 123.82992 31446 ft 539 kts 53°
2026-05-05 08:40 31.52832 123.86527 31707 ft 539 kts 53°
2026-05-05 08:40 31.55009 123.90113 31971 ft 539 kts 53°
2026-05-05 08:40 31.57182 123.93696 32222 ft 539 kts 53°
2026-05-05 08:41 31.59359 123.97287 32465 ft 540 kts 53°
2026-05-05 08:41 31.61284 124.01069 32668 ft 541 kts 68°
2026-05-05 08:41 31.62428 124.05274 32904 ft 539 kts 77°
2026-05-05 08:41 31.63335 124.09540 33174 ft 538 kts 78°
2026-05-05 08:42 31.64210 124.13809 33372 ft 540 kts 78°
2026-05-05 08:42 31.65097 124.18093 33566 ft 541 kts 78°
2026-05-05 08:42 31.66007 124.22378 33808 ft 541 kts 78°
2026-05-05 08:42 31.66938 124.26660 34063 ft 541 kts 77°
2026-05-05 08:43 31.67883 124.30934 34264 ft 541 kts 77°
2026-05-05 08:43 31.68836 124.35221 34443 ft 542 kts 77°
2026-05-05 08:43 31.69787 124.39494 34615 ft 542 kts 77°
2026-05-05 08:43 31.70738 124.43780 34802 ft 542 kts 77°
2026-05-05 08:44 31.71687 124.48071 34981 ft 543 kts 77°
2026-05-05 08:44 31.72632 124.52362 35145 ft 543 kts 77°
2026-05-05 08:44 31.73564 124.56607 35321 ft 543 kts 78°
2026-05-05 08:44 31.74507 124.60910 35499 ft 544 kts 78°
2026-05-05 08:45 31.75449 124.65217 35659 ft 544 kts 78°
2026-05-05 08:45 31.76391 124.69528 35821 ft 545 kts 78°
2026-05-05 08:45 31.77330 124.73833 35988 ft 545 kts 78°
2026-05-05 08:45 31.78273 124.78168 36176 ft 544 kts 78°
2026-05-05 08:46 31.79211 124.82483 36433 ft 542 kts 78°
2026-05-05 08:46 31.80130 124.86716 36692 ft 540 kts 78°
2026-05-05 08:46 31.81069 124.91052 36947 ft 538 kts 78°
2026-05-05 08:46 31.81934 124.95259 37101 ft 537 kts 82°
2026-05-05 08:47 31.82385 124.99619 37096 ft 535 kts 91°
2026-05-05 08:47 31.81832 125.08253 37114 ft 526 kts 107°
2026-05-05 08:48 31.80354 125.16696 37107 ft 528 kts 108°
2026-05-05 08:48 31.78888 125.25131 37115 ft 530 kts 108°
2026-05-05 08:49 31.77466 125.33711 37114 ft 532 kts 107°
2026-05-05 08:49 31.76075 125.42186 37117 ft 532 kts 108°
2026-05-05 08:50 31.74667 125.50699 37114 ft 531 kts 108°
2026-05-05 08:50 31.73251 125.59197 37110 ft 530 kts 108°
2026-05-05 08:51 31.72728 125.67913 37123 ft 541 kts 90°
2026-05-05 08:51 31.73206 125.72308 37108 ft 546 kts 79°
2026-05-05 08:51 31.74179 125.76612 37144 ft 546 kts 76°
2026-05-05 08:52 31.76272 125.85202 37120 ft 546 kts 75°
2026-05-05 08:52 31.77760 125.89306 37104 ft 545 kts 56°
2026-05-05 08:52 31.80043 125.92749 37139 ft 539 kts 41°
2026-05-05 08:52 31.82892 125.95539 37122 ft 529 kts 26°
2026-05-05 08:53 31.86122 125.97454 37131 ft 514 kts 12°
2026-05-05 08:53 31.92899 126.00183 37137 ft 516 kts 10°
2026-05-05 08:54 31.99754 126.02931 37134 ft 522 kts 12°
2026-05-05 08:54 32.06614 126.05844 37129 ft 525 kts 12°
2026-05-05 08:55 32.13499 126.08774 37123 ft 526 kts 12°
2026-05-05 08:55 32.20379 126.11687 37123 ft 525 kts 12°
2026-05-05 08:56 32.27169 126.14575 37016 ft 507 kts 12°
2026-05-05 08:56 32.30395 126.15958 36854 ft 493 kts 12°
2026-05-05 08:56 32.33630 126.17335 36250 ft 495 kts 12°
2026-05-05 08:56 32.36915 126.18720 35609 ft 507 kts 12°
2026-05-05 08:57 32.40272 126.20137 34928 ft 516 kts 12°
2026-05-05 08:57 32.43670 126.21584 34249 ft 520 kts 13°
2026-05-05 08:57 32.47081 126.23046 33491 ft 522 kts 13°
2026-05-05 08:57 32.50494 126.24510 32725 ft 522 kts 13°
2026-05-05 08:58 32.53908 126.25972 31987 ft 521 kts 13°
2026-05-05 08:58 32.57321 126.27434 31250 ft 521 kts 13°
2026-05-05 08:58 32.60721 126.28891 30551 ft 519 kts 14°
2026-05-05 08:58 32.64119 126.30350 29791 ft 518 kts 14°
2026-05-05 08:59 32.67500 126.31803 28981 ft 515 kts 14°
2026-05-05 08:59 32.70856 126.33247 28194 ft 512 kts 15°
2026-05-05 08:59 32.74201 126.34687 27426 ft 508 kts 15°
2026-05-05 08:59 32.77468 126.36095 26686 ft 504 kts 15°
2026-05-05 09:00 32.80752 126.37510 25954 ft 500 kts 15°
2026-05-05 09:00 32.84019 126.38919 25232 ft 498 kts 16°
2026-05-05 09:00 32.87269 126.40322 24542 ft 493 kts 16°
2026-05-05 09:00 32.90475 126.41707 23827 ft 488 kts 17°
2026-05-05 09:01 32.93670 126.43088 22816 ft 489 kts 17°
2026-05-05 09:01 32.96857 126.44466 21918 ft 486 kts 17°
2026-05-05 09:01 33.00001 126.45828 21429 ft 475 kts 17°
2026-05-05 09:01 33.03059 126.47152 21231 ft 458 kts 17°
2026-05-05 09:02 33.06028 126.48431 20710 ft 450 kts 17°
2026-05-05 09:02 33.08993 126.49701 19818 ft 454 kts 17°
2026-05-05 09:02 33.11964 126.50973 18964 ft 449 kts 17°
2026-05-05 09:02 33.14684 126.52143 18158 ft 441 kts 17°
2026-05-05 09:03 33.17550 126.53377 17217 ft 433 kts 18°
2026-05-05 09:03 33.20364 126.54590 16296 ft 424 kts 18°
2026-05-05 09:03 33.23108 126.55774 15409 ft 416 kts 18°
2026-05-05 09:03 33.25798 126.56934 14553 ft 408 kts 18°
2026-05-05 09:04 33.28451 126.58080 13680 ft 401 kts 18°
2026-05-05 09:04 33.31059 126.59207 12745 ft 395 kts 18°
2026-05-05 09:04 33.33588 126.60302 12403 ft 376 kts 19°
2026-05-05 09:04 33.36026 126.61335 12265 ft 370 kts 14°
2026-05-05 09:05 33.38549 126.61664 12146 ft 364 kts 353°
2026-05-05 09:05 33.40962 126.60969 12107 ft 359 kts 335°
2026-05-05 09:05 33.43206 126.59659 12112 ft 359 kts 331°
2026-05-05 09:05 33.45416 126.58269 12103 ft 358 kts 330°
2026-05-05 09:06 33.47622 126.56872 12098 ft 358 kts 330°
2026-05-05 09:06 33.49830 126.55488 12096 ft 358 kts 331°
2026-05-05 09:06 33.52043 126.54115 12102 ft 358 kts 331°
2026-05-05 09:06 33.54232 126.52769 11888 ft 349 kts 331°
2026-05-05 09:07 33.56391 126.51445 11358 ft 345 kts 331°
2026-05-05 09:07 33.58539 126.50128 11232 ft 350 kts 331°
2026-05-05 09:07 33.60727 126.48785 11147 ft 354 kts 332°
2026-05-05 09:07 33.62920 126.47439 11108 ft 353 kts 332°
2026-05-05 09:08 33.65099 126.46101 11110 ft 352 kts 331°
2026-05-05 09:08 33.67282 126.44760 11112 ft 353 kts 331°
2026-05-05 09:08 33.69428 126.43327 11100 ft 352 kts 322°
2026-05-05 09:08 33.71053 126.41223 11126 ft 348 kts 301°
2026-05-05 09:09 33.71990 126.38570 11105 ft 346 kts 282°
2026-05-05 09:09 33.72402 126.35723 11111 ft 345 kts 278°
2026-05-05 09:09 33.72754 126.32864 11106 ft 346 kts 277°
2026-05-05 09:09 33.73102 126.30007 11106 ft 346 kts 278°
2026-05-05 09:10 33.73468 126.27172 11065 ft 339 kts 278°
2026-05-05 09:10 33.73833 126.24419 10995 ft 328 kts 278°
2026-05-05 09:10 33.74058 126.21759 10892 ft 315 kts 266°
2026-05-05 09:10 33.73777 126.19202 10832 ft 302 kts 261°
2026-05-05 09:11 33.73464 126.16754 10754 ft 291 kts 261°
2026-05-05 09:11 33.73175 126.14379 10579 ft 285 kts 262°
2026-05-05 09:11 33.72803 126.12056 10272 ft 284 kts 250°
2026-05-05 09:11 33.71985 126.09900 9967 ft 283 kts 244°
2026-05-05 09:12 33.71131 126.07780 9650 ft 281 kts 245°
2026-05-05 09:12 33.70294 126.05659 9342 ft 280 kts 245°
2026-05-05 09:12 33.69458 126.03591 9147 ft 277 kts 240°
2026-05-05 09:12 33.68278 126.01754 9120 ft 279 kts 229°
2026-05-05 09:13 33.66952 126.00035 9115 ft 281 kts 228°
2026-05-05 09:13 33.65621 125.98316 9104 ft 280 kts 229°
2026-05-05 09:13 33.64314 125.96606 9091 ft 277 kts 228°
2026-05-05 09:13 33.62766 125.95234 9093 ft 280 kts 204°
2026-05-05 09:14 33.60930 125.94557 8840 ft 278 kts 195°
2026-05-05 09:14 33.59050 125.94039 8381 ft 277 kts 194°
2026-05-05 09:14 33.57162 125.93540 7836 ft 278 kts 194°
2026-05-05 09:14 33.55269 125.93045 7337 ft 278 kts 193°
2026-05-05 09:15 33.53441 125.92647 6968 ft 277 kts 191°
2026-05-05 09:15 33.51842 125.92376 6707 ft 272 kts 188°
2026-05-05 09:15 33.49977 125.92141 6392 ft 266 kts 186°
2026-05-05 09:15 33.48755 125.92062 6101 ft 268 kts 183°
2026-05-05 09:16 33.46868 125.92076 5711 ft 270 kts 179°
2026-05-05 09:16 33.44398 125.92363 5218 ft 264 kts 174°
2026-05-05 09:16 33.42624 125.92704 4476 ft 266 kts 172°
2026-05-05 09:16 33.40729 125.93314 4049 ft 276 kts 156°
2026-05-05 09:17 33.39179 125.94530 3725 ft 262 kts 140°
2026-05-05 09:17 33.37965 125.96107 3292 ft 254 kts 129°
2026-05-05 09:17 33.37379 125.97049 3057 ft 249 kts 128°
2026-05-05 09:17 33.36080 125.99406 1642 ft 267 kts 123°
2026-05-05 09:18 33.35462 126.00711 972 ft 286 kts 117°
2026-05-05 09:18 33.34968 126.02917 1703 ft 259 kts 98°